Tracking 18852 objects as of 24-Nov-2017
HD Live streaming from Space Station
objects crossing your sky now

AVUM DEB(ADAPTOR)

Track AVUM DEB(ADAPTOR) now!
10-day predictions


NORAD ID: 42902
Int'l Code: 2017-044C
Perigee: 438.1 km
Apogee: 448.2 km
Inclination: 97.2 °
Period: 93.3 minutes
Semi major axis: 6814 km
RCS: Unknown
Launch date: August 2, 2017
Source: European Space Agency (ESA)
Launch site: FRENCH GUIANA (FRGUI)

Note: This is SATELLITE DEBRIS
aabbcc
Your satellite tracking list
Your tracking list is empty




NASA's NSSDC Master Catalog

Two Line Element Set (TLE):
1 42902U 17044C   17327.27403096  .00014083  00000-0  31638-3 0  9994
2 42902  97.2032  40.2217 0007439 291.9027  68.1698 15.43434720 17448
Source of the keplerian elements: AFSPC